Location: American Medical Response
(33.3472°N, 96.5511°W)
Time: 03:48:43
(UTC+00:00)

Lacrosse 5 rocket - Pass Details

Date: 09 July 2022
Orbit: 456 x 628 km, 57.0° (Epoch: 17 August)

Event Time Altitude Azimuth Distance (km) Brightness Sun altitude
Rises 02:17:09 0° 309° (NW) 2,594 7.2 -7.7°
Reaches altitude 10° 02:19:27 10° 299° (WNW) 1,735 5.6 -8.1°
Maximum altitude 02:22:55 31° 237° (WSW) 956 2.8 -8.7°
Drops below altitude 10° 02:26:33 10° 175° (S) 1,821 3.6 -9.4°
Enters shadow 02:27:47 - 168° (SSE) 2,278 4.0 -9.6°
